Location: Newark
(32.2136°N, 35.2820°E)
Time: 22:37:00
(UTC+00:00)

ISS - Visible Passes

Search period start: 17 September 2019 00:00
Search period end: 27 September 2019 00:00
Orbit: 411 x 421 km, 51.6° (Epoch: 18 September)

Date Brightness Start Highest point End Pass type
(mag) Time Alt. Az. Time Alt. Az. Time Alt. Az.
17 Sep -3.3 02:02:23 42° SSW 02:02:23 42° SSW 02:05:10 10° SSE visible
17 Sep -3.7 17:01:11 10° SSW 17:04:19 53° SE 17:04:19 53° SE visible
18 Sep -2.7 16:13:14 10° S 16:16:03 26° SE 16:18:52 10° ENE visible
18 Sep -1.1 17:50:03 10° W 17:51:57 20° WNW 17:51:57 20° WNW visible
19 Sep -2.5 17:01:02 10° WSW 17:04:10 39° NW 17:06:18 17° NNE visible
20 Sep -3.7 16:12:21 10° SW 16:15:39 80° NW 16:18:58 10° NE visible
21 Sep -0.9 17:02:05 10° WNW 17:04:07 15° NNW 17:06:08 10° N visible
22 Sep -1.5 16:12:40 10° W 16:15:26 24° NW 16:18:13 10° NNE visible
24 Sep -0.6 16:14:50 10° NW 16:15:26 10° NNW 16:16:02 10° NNW visible
